Weather History for KC29 - January, 2014

Change the Weather History Date:

Sunday, January 5, 2014

  Actual Average (KMSN) Record (KMSN)
Temperature  
Mean Temperature 4 °F 19 °F  
Max Temperature 16 °F 26 °F 51 °F (2012)
Min Temperature -8 °F 12 °F -27 °F (1884)
Degree Days  
Heating Degree Days 60 46  
Month to date heating degree days 230  
Since 1 July heating degree days 3109  
Cooling Degree Days 0 0  
Month to date cooling degree days 0  
Year to date cooling degree days 0  
Moisture  
Dew Point -9 °F    
Average Humidity 54    
Maximum Humidity 64    
Minimum Humidity 42    
Precipitation  
Precipitation 0.00 in 0.05 in 1.11 in (1939)
Month to date precipitation 0.21  
Year to date precipitation 0.21  
Snow  
Snow 0.00 in 0.40 in 9.90 in (1929)
Month to date snowfall 2.0  
Since 1 July snowfall 19.6  
Snow Depth -    
Sea Level Pressure  
Sea Level Pressure 30.12 in    
Wind  
Wind Speed 13 mph (NNW)    
Max Wind Speed 22 mph    
Max Gust Speed 30 mph    
Visibility 10 miles    
Events      
T = Trace of Precipitation, MM = Missing Value Source: NWS Daily Summary

Daily Weather History Graph

Daily Weather History Graph

Search for Another Location

Airport or City:

Trip Planner

Search our weather history database for the weather conditions in past years. The results will help you decide how hot, cold, wet, or windy it might be!

Date:

Astronomy

Jan. 05, 2014 Rise Set
Actual Time 7:29 AM CST 4:37 PM CST
Civil Twilight 6:57 AM CST 5:09 PM CST
Nautical Twilight 6:22 AM CST 5:45 PM CST
Astronomical Twilight 5:47 AM CST 6:19 PM CST
Moon 10:02 AM CST (1/5) 10:14 PM CST (1/5)
Length of Visible Light 10h 12m
Length of Day
9h 07m
Waxing Crescent, 25% of the Moon is Illuminated
Jan 5
Waxing Crescent
Jan 7
First Quarter
Jan 15
Full
Jan 23
Last Quarter
Jan 30
New

Hourly Weather History & Observations

Time (CST) Temp. Windchill Dew Point Humidity Pressure Visibility Wind Dir Wind Speed Gust Speed Precip Events Conditions
12:15 AM 16.0 °F 2.9 °F 4.6 °F 61% 30.08 in 10.0 mi North 11.5 mph - N/A   Overcast
12:35 AM 15.6 °F 0.1 °F 4.3 °F 61% 30.08 in 10.0 mi North 16.1 mph - N/A   Overcast
12:55 AM 15.4 °F 1.0 °F 3.9 °F 60% 30.08 in 10.0 mi North 13.8 mph - N/A   Overcast
1:15 AM 14.9 °F -0.3 °F 3.6 °F 61% 30.09 in 10.0 mi North 15.0 mph - N/A   Overcast
1:35 AM 14.7 °F 3.8 °F 3.2 °F 60% 30.10 in 10.0 mi North 8.1 mph - N/A   Overcast
1:55 AM 14.5 °F 0.5 °F 2.8 °F 60% 30.10 in 10.0 mi North 12.7 mph - N/A   Overcast
2:15 AM 14.0 °F 1.2 °F 2.8 °F 61% 30.12 in 10.0 mi North 10.4 mph - N/A   Overcast
2:35 AM 13.8 °F 1.8 °F 2.8 °F 62% 30.12 in 10.0 mi North 9.2 mph - N/A   Overcast
2:55 AM 13.5 °F 1.3 °F 2.7 °F 62% 30.12 in 10.0 mi North 9.2 mph - N/A   Overcast
3:15 AM 13.1 °F -0.7 °F 2.1 °F 62% 30.12 in 10.0 mi North 11.5 mph - N/A   Overcast
3:35 AM 12.7 °F -1.8 °F 1.2 °F 60% 30.12 in 10.0 mi North 12.7 mph - N/A   Overcast
3:55 AM 12.2 °F -1.0 °F 0.5 °F 60% 30.11 in 10.0 mi North 10.4 mph - N/A   Overcast
4:15 AM 11.8 °F -0.7 °F 0.3 °F 60% 30.11 in 10.0 mi North 9.2 mph - N/A   Overcast
4:35 AM 11.3 °F -3.6 °F -0.8 °F 58% 30.10 in 10.0 mi North 12.7 mph - N/A   Mostly Cloudy
4:55 AM 11.3 °F -2.9 °F -0.6 °F 59% 30.11 in 10.0 mi North 11.5 mph - N/A   Mostly Cloudy
5:15 AM 10.9 °F -3.4 °F -0.2 °F 61% 30.11 in 10.0 mi North 11.5 mph - N/A   Mostly Cloudy
5:35 AM 10.4 °F -4.8 °F -0.0 °F 63% 30.11 in 10.0 mi North 12.7 mph - N/A   Overcast
5:55 AM 10.0 °F -4.5 °F -0.8 °F 62% 30.11 in 10.0 mi North 11.5 mph 17.3 mph N/A   Overcast
6:15 AM 9.5 °F -5.2 °F -1.7 °F 61% 30.12 in 10.0 mi North 11.5 mph - N/A   Overcast
6:35 AM 9.3 °F -4.6 °F -1.3 °F 62% 30.12 in 10.0 mi North 10.4 mph - N/A   Overcast
6:55 AM 9.1 °F -3.0 °F -0.8 °F 64% 30.13 in 10.0 mi North 8.1 mph - N/A   Overcast
7:15 AM 9.0 °F -5.9 °F -2.2 °F 61% 30.14 in 10.0 mi North 11.5 mph - N/A   Overcast
7:35 AM 8.6 °F -4.7 °F -2.2 °F 62% 30.15 in 10.0 mi North 9.2 mph - N/A   Overcast
7:55 AM 8.4 °F -7.9 °F -3.1 °F 60% 30.15 in 10.0 mi North 13.8 mph - N/A   Overcast
8:15 AM 8.2 °F -8.2 °F -3.3 °F 59% 30.15 in 10.0 mi North 13.8 mph - N/A   Overcast
8:35 AM 8.1 °F -5.3 °F -4.0 °F 58% 30.17 in 10.0 mi North 9.2 mph - N/A   Overcast
8:55 AM 8.1 °F -7.0 °F -3.8 °F 58% 30.18 in 10.0 mi NNW 11.5 mph 16.1 mph N/A   Overcast
9:15 AM 7.7 °F -8.9 °F -4.0 °F 59% 30.16 in 10.0 mi North 13.8 mph - N/A   Overcast
9:35 AM 7.5 °F -9.1 °F -5.3 °F 56% 30.15 in 10.0 mi North 13.8 mph - N/A   Mostly Cloudy
9:55 AM 7.3 °F -7.1 °F -5.1 °F 57% 30.17 in 10.0 mi NNW 10.4 mph - N/A   Scattered Clouds
10:15 AM 7.2 °F -8.1 °F -6.0 °F 55% 30.17 in 10.0 mi NNW 11.5 mph - N/A   Mostly Cloudy
10:35 AM 6.8 °F -7.8 °F -6.5 °F 55% 30.15 in 10.0 mi NNW 10.4 mph - N/A   Overcast
10:55 AM 6.8 °F -8.6 °F -6.7 °F 54% 30.15 in 10.0 mi NNW 11.5 mph - N/A   Mostly Cloudy
11:15 AM 6.6 °F -8.0 °F -6.9 °F 54% 30.14 in 10.0 mi NNW 10.4 mph - N/A   Scattered Clouds
11:35 AM 6.4 °F -10.5 °F -8.3 °F 51% 30.12 in 10.0 mi NNW 13.8 mph - N/A   Clear
11:55 AM 6.4 °F -12.3 °F -8.7 °F 50% 30.13 in 10.0 mi North 17.3 mph - N/A   Mostly Cloudy
12:15 PM 5.9 °F -11.2 °F -9.8 °F 49% 30.11 in 10.0 mi NNW 13.8 mph 20.7 mph N/A   Overcast
12:35 PM 5.5 °F -12.9 °F -10.8 °F 47% 30.11 in 10.0 mi NNW 16.1 mph - N/A   Scattered Clouds
12:55 PM 5.4 °F -13.1 °F -11.2 °F 47% 30.09 in 10.0 mi North 16.1 mph - N/A   Scattered Clouds
1:15 PM 5.0 °F -10.8 °F -11.9 °F 46% 30.10 in 10.0 mi North 11.5 mph - N/A   Scattered Clouds
1:35 PM 5.0 °F -12.3 °F -13.0 °F 43% 30.09 in 10.0 mi North 13.8 mph - N/A   Mostly Cloudy
1:55 PM 4.6 °F -12.8 °F -12.6 °F 45% 30.10 in 10.0 mi NNW 13.8 mph - N/A   Overcast
2:15 PM 4.1 °F -14.1 °F -13.4 °F 44% 30.10 in 10.0 mi NNW 15.0 mph - N/A   Overcast
2:35 PM 3.9 °F -15.0 °F -14.6 °F 42% 30.11 in 10.0 mi NNW 16.1 mph - N/A   Overcast
2:55 PM 3.9 °F -13.7 °F -13.2 °F 45% 30.11 in 10.0 mi North 13.8 mph - N/A   Overcast
3:15 PM 3.2 °F -15.3 °F -14.8 °F 43% 30.11 in 10.0 mi North 15.0 mph - N/A   Overcast
3:35 PM 3.2 °F -12.2 °F -12.6 °F 48% 30.12 in 10.0 mi NNW 10.4 mph - N/A   Overcast
3:55 PM 2.5 °F -16.2 °F -13.5 °F 47% 30.12 in 10.0 mi NW 15.0 mph - N/A   Overcast
4:15 PM 2.1 °F -16.0 °F -14.3 °F 46% 30.12 in 10.0 mi NW 13.8 mph - N/A   Mostly Cloudy
4:35 PM 1.6 °F -15.9 °F -15.2 °F 46% 30.12 in 10.0 mi NW 12.7 mph 20.7 mph N/A   Scattered Clouds
4:55 PM 1.4 °F -14.5 °F -15.0 °F 46% 30.12 in 10.0 mi NW 10.4 mph 19.6 mph N/A   Scattered Clouds
5:15 PM 1.2 °F -17.8 °F -15.7 °F 45% 30.12 in 10.0 mi NW 15.0 mph 18.4 mph N/A   Scattered Clouds
5:35 PM 1.2 °F -15.6 °F -14.8 °F 47% 30.12 in 10.0 mi NW 11.5 mph 16.1 mph N/A   Mostly Cloudy
5:55 PM 1.0 °F -17.3 °F -15.5 °F 46% 30.12 in 10.0 mi NW 13.8 mph 21.9 mph N/A   Overcast
6:15 PM 0.3 °F -18.3 °F -15.3 °F 48% 30.12 in 10.0 mi NW 13.8 mph 18.4 mph N/A   Mostly Cloudy
6:35 PM -0.6 °F -20.8 °F -16.4 °F 47% 30.12 in 10.0 mi WNW 16.1 mph 21.9 mph N/A   Scattered Clouds
6:55 PM -1.3 °F -20.3 °F -16.1 °F 50% 30.12 in 10.0 mi NW 13.8 mph 21.9 mph N/A   Clear
7:15 PM -1.5 °F -22.6 °F -16.2 °F 50% 30.12 in 10.0 mi NW 17.3 mph 23.0 mph N/A   Clear
7:35 PM -1.7 °F -21.5 °F -16.1 °F 51% 30.12 in 10.0 mi NW 15.0 mph 20.7 mph N/A   Clear
7:55 PM -2.2 °F -24.1 °F -16.2 °F 51% 30.11 in 10.0 mi NW 18.4 mph 25.3 mph N/A   Clear
8:15 PM -2.7 °F -24.2 °F -17.1 °F 50% 30.10 in 10.0 mi NW 17.3 mph 25.3 mph N/A   Clear
8:35 PM -3.1 °F -25.8 °F -17.9 °F 49% 30.11 in 10.0 mi NW 19.6 mph 26.5 mph N/A   Clear
8:55 PM -3.6 °F -27.6 °F -18.6 °F 49% 30.10 in 10.0 mi NW 21.9 mph 27.6 mph N/A   Clear
9:15 PM -4.0 °F -27.6 °F -18.6 °F 50% 30.10 in 10.0 mi NW 20.7 mph 28.8 mph N/A   Clear
9:35 PM -4.5 °F -28.3 °F -18.6 °F 51% 30.11 in 10.0 mi NW 20.7 mph 29.9 mph N/A   Clear
9:55 PM -5.4 °F -28.3 °F -18.9 °F 52% 30.11 in 10.0 mi NW 18.4 mph 27.6 mph N/A   Clear
10:15 PM -6.0 °F -28.4 °F -19.3 °F 53% 30.11 in 10.0 mi NW 17.3 mph 24.2 mph N/A   Clear
10:35 PM -6.2 °F -28.6 °F -19.7 °F 52% 30.11 in 10.0 mi NW 17.3 mph 25.3 mph N/A   Clear
10:55 PM -6.9 °F -28.9 °F -19.7 °F 54% 30.10 in 10.0 mi NW 16.1 mph - N/A   Clear
11:15 PM -7.4 °F -27.3 °F -20.0 °F 54% 30.10 in 10.0 mi NW 12.7 mph - N/A   Clear
11:35 PM -7.8 °F -27.7 °F -20.2 °F 55% 30.09 in 10.0 mi NW 12.7 mph 19.6 mph N/A   Scattered Clouds
11:55 PM -8.0 °F -31.6 °F -20.2 °F 55% 30.09 in 10.0 mi NW 18.4 mph 23.0 mph N/A   Mostly Cloudy